星链-5370 (STARLINK-5370 )

导读

STARLINK-5370是美国太空探索技术公司星链星座的组成卫星,于2023年3月29日在美国发射升空。星链项目旨在构建全球卫星互联网星座,为全球偏远地区、海洋等难以铺设地面网络的区域,提供高速互联网接入服务,该卫星进一步扩充了星链低轨卫星星座的在轨规模,提升星座服务覆盖能力。

基本信息
目录编号:
56145
目录名称:
STARLINK-5370
国际标识:
2023-046BF
轨道中心:
EARTH
卫星名称:
星链-5370
卫星全名:
星链-5370 (STARLINK-5370 )
卫星状态:
已陨落 最后检测时间 2024-05-04
发射日期:
2023-03-29 UTC
国别 :
美国 (US)
星等 :
--
该卫星已列入 空间交会检测服务 Space Conjunction Data Service (SCDS) ,当前飞行风险评估等级: 无高风险
轨道信息
数据来源 国际轨道数据
星历时间: 2024-05-05T01:55:33+0800
轨道信息已过期861天
半长轴: 6545.661km
偏心率: 0.0002067
轨道倾角: 42.983°
近地点辐角 343.085°
升交点赤经 129.549°
平近点角 126.541°
近地点: 166.173km
远地点: 168.879km
周期: 87.840分钟
每日圈数: 16.393534
详细信息
固有亮度:
5
最大亮度:
2.5
卫星平台:
Starlink v1.5
覆盖范围:
全球
运营商:
太空探索技术公司
运营商所在国:
美国
制造商(研发单位):
太空探索技术公司
制造商所在国:
美国
使用方式:
暂无
卫星简介
星链(Starlink)计划是由太空探索技术公司(SpaceX)提出的一个巨型低轨卫星互联网星座项目,计划在2019年至2024年间在太空搭建由约1.2万颗卫星组成的“星链”网络,其中1584颗将部署在地球上空550千米处的近地轨道,并从2020年开始工作。该卫星已陨落。
与全量物体交会距离演化趋势
与全量物体交会风险概率演化趋势